Hourly Data Report for October 20, 2014

All times are specified in Local Standard Time (LST). Add 1 hour to adjust for Daylight Saving Time where and when it is observed.

CLYDE RIVER A
NUNAVUT

70°29'09.000" N
68°31'01.000" W
26.50 m
2400804
71090
YCY

Download Data

Hourly Data (October 2014)
Hourly Data Report for October 20, 2014
Temp Definition
°C
Dew Point Temp Definition
°C
Rel Hum Definition
%
Wind Dir Definition
10's deg

Wind Spd Definition
km/h
Visibility Definition
km
Stn Press Definition
kPa
Hmdx Definition


Wind Chill Definition


Weather Definition


TIME
00:00 Legend Double Dagger -8.4 -11.7 77   0 16.1 101.12     LegendNANA
01:00 Legend Double Dagger -10.2 -13.1 80 27 8 16.1 101.12   -15 LegendNANA
02:00 Legend Double Dagger -11.6 -13.6 85 LegendMM 5 16.1 101.13   -15 LegendNANA
03:00 Legend Double Dagger -11.2 -13.7 82 29 9 16.1 101.11   -16 LegendNANA
04:00 Legend Double Dagger -12.5 -14.6 85 30 5 16.1 101.12   -16 LegendNANA
05:00 Legend Double Dagger -11.9 -14.4 82   0 16.1 101.10     LegendNANA
06:00 Legend Double Dagger -11.6 -13.5 86   0 16.1 101.08     LegendNANA
07:00 Legend Double Dagger -8.1 -11.3 78 17 9 16.1 101.06   -13 LegendNANA
08:00 Legend Double Dagger -4.9 -8.8 74 19 11 16.1 101.03   -9 LegendNANA
09:00 Legend Double Dagger -5.5 -7.9 83 20 21 16.1 101.00   -12 LegendNANA
10:00 Legend Double Dagger -4.5 -7.4 80 20 21 6.4 100.96   -11 Snow
11:00 Legend Double Dagger -4.4 -7.9 77 15 9 16.1 100.95   -8 LegendNANA
12:00 Legend Double Dagger -5.4 -8.5 79 18 9 16.1 100.93   -9 LegendNANA
13:00 Legend Double Dagger -4.8 -7.7 80 23 15 16.1 100.89   -10 LegendNANA
14:00 Legend Double Dagger -4.3 -7.9 76 20 9 16.1 100.86   -8 LegendNANA
15:00 Legend Double Dagger -6.9 -8.6 88 2 4 16.1 100.85   -9 LegendNANA
16:00 Legend Double Dagger -6.9 -9.1 84 LegendMM 4 16.1 100.82   -9 LegendNANA
17:00 Legend Double Dagger -5.3 -8.1 81 14 4 16.1 100.78   -7 LegendNANA
18:00 Legend Double Dagger -5.0 -7.0 86 18 15 16.1 100.75   -11 LegendNANA
19:00 Legend Double Dagger -4.6 -6.0 90 15 17 9.7 100.70   -10 Snow
20:00 Legend Double Dagger -4.9 -5.7 94 15 11 12.9 100.65   -9 Snow
21:00 Legend Double Dagger -4.7 -5.5 94 16 9 8.1 100.58   -9 Snow
22:00 Legend Double Dagger -4.6 -5.3 95 12 9 16.1 100.51   -8 Snow
23:00 Legend Double Dagger -4.9 -5.6 95 11 11 6.4 100.45   -9 Snow

Notes on Data Quality.

Legend

  • E = Estimated
  • M = Missing
  • NA = Not Available
  • ‡ = Partner data that is not subject to review by the National Climate Archives
Date modified: